This demonstration page uses our WeatherBlox Daily Observations layout. Learn more.

Hourly Observations for March 28, 2019

Temp ( °F °C ) Dew Point ( °F °C ) Humidity (%) Winds ( mph kmh ) Pressure ( in mb ) Visibility ( mi km ) Precip ( " mm )
12:15 am 00:15 Clear 41 5 30 -1 66 66 S 6 9 30.48 1032 10 16.09344 0 0
12:35 am 00:35 Clear 39 4 30 -1 70 70 S 7 11 30.48 1032 10 16.09344 0 0
12:55 am 00:55 Clear 39 4 30 -1 70 70 SSW 5 7 30.48 1032 10 16.09344 0 0
1:15 am 01:15 Clear 39 4 32 0 75 75 SSW 6 9 30.48 1032 10 16.09344 0 0
1:35 am 01:35 Clear 37 3 30 -1 75 75 S 6 9 30.48 1032 10 16.09344 0 0
1:55 am 01:55 Clear 37 3 30 -1 75 75 S 5 7 30.48 1032 10 16.09344 0 0
2:15 am 02:15 Clear 37 3 30 -1 75 75 S 3 6 30.48 1032 10 16.09344 0 0
2:35 am 02:35 Clear 37 3 30 -1 75 75 S 6 9 30.48 1032 10 16.09344 0 0
2:55 am 02:55 Clear 37 3 30 -1 75 75 S 7 11 30.45 1031 10 16.09344 0 0
3:15 am 03:15 Clear 37 3 30 -1 75 75 S 7 11 30.45 1031 10 16.09344 0 0
3:35 am 03:35 Clear 37 3 32 0 81 81 S 8 13 30.45 1031 10 16.09344 0 0
3:55 am 03:55 Clear 37 3 32 0 81 81 S 9 15 30.45 1031 10 16.09344 0 0
4:15 am 04:15 Clear 37 3 32 0 81 81 S 8 13 30.45 1031 10 16.09344 0 0
4:35 am 04:35 Clear 37 3 32 0 81 81 S 6 9 30.45 1031 10 16.09344 0 0
4:55 am 04:55 Clear 34 1 32 0 93 93 SW 3 6 30.45 1031 10 16.09344 0 0
5:15 am 05:15 Clear 36 2 32 0 87 87 S 6 9 30.45 1031 10 16.09344 0 0
5:35 am 05:35 Clear 36 2 32 0 87 87 S 7 11 30.45 1031 10 16.09344 0 0
5:55 am 05:55 Clear 34 1 32 0 93 93 S 6 9 30.45 1031 10 16.09344 0 0
6:15 am 06:15 Clear 32 0 30 -1 93 93 Calm 30.45 1031 10 16.09344 0 0
6:35 am 06:35 Clear 34 1 32 0 93 93 Calm 30.45 1031 10 16.09344 0 0
6:55 am 06:55 Clear 34 1 32 0 93 93 S 3 6 30.45 1031 10 16.09344 0 0
7:15 am 07:15 Sunny 34 1 32 0 93 93 Calm 30.48 1032 10 16.09344 0 0
7:35 am 07:35 Sunny 34 1 32 0 93 93 S 5 7 30.48 1032 10 16.09344 0 0
7:55 am 07:55 Sunny 36 2 32 0 87 87 S 3 6 30.48 1032 10 16.09344 0 0
8:15 am 08:15 Sunny 36 2 32 0 87 87 S 3 6 30.48 1032 10 16.09344 0 0
8:35 am 08:35 Sunny 37 3 32 0 81 81 S 5 7 30.48 1032 10 16.09344 0 0
8:55 am 08:55 Sunny 39 4 32 0 75 75 S 8 13 30.48 1032 10 16.09344 0 0
9:15 am 09:15 Sunny 41 5 34 1 76 76 SSW 9 15 30.48 1032 10 16.09344 0 0
9:35 am 09:35 Sunny 43 6 34 1 71 71 SSW 9 15 30.45 1031 10 16.09344 0 0
9:55 am 09:55 Sunny 45 7 34 1 66 66 S 12 19 30.45 1031 10 16.09344 0 0
10:15 am 10:15 Sunny 46 8 34 1 62 62 SSW 10 17 30.45 1031 10 16.09344 0 0
10:35 am 10:35 Sunny 46 8 34 1 62 62 S 10 17 30.45 1031 10 16.09344 0 0
10:55 am 10:55 Sunny 48 9 34 1 58 58 S 15 24 30.42 1030 10 16.09344 0 0
11:15 am 11:15 Sunny 50 10 34 1 54 54 S 12 19 30.42 1030 10 16.09344 0 0
11:35 am 11:35 Sunny 52 11 34 1 50 50 S 13 20 30.42 1030 10 16.09344 0 0
11:55 am 11:55 Sunny 52 11 34 1 50 50 S 12 19 30.39 1029 10 16.09344 0 0
12:15 pm 12:15 Sunny 54 12 34 1 47 47 S 10 17 30.39 1029 10 16.09344 0 0
12:35 pm 12:35 Sunny 55 13 34 1 44 44 S 10 17 30.36 1028 10 16.09344 0 0
12:55 pm 12:55 Sunny 57 14 34 1 41 41 S 9 15 30.33 1027 10 16.09344 0 0
1:15 pm 13:15 Sunny 59 15 34 1 39 39 S 10 17 30.33 1027 10 16.09344 0 0
1:35 pm 13:35 Sunny 61 16 36 2 39 39 S 13 20 30.3 1026 10 16.09344 0 0
1:55 pm 13:55 Sunny 61 16 36 2 39 39 SSW 14 22 30.3 1026 10 16.09344 0 0
2:15 pm 14:15 Sunny 63 17 36 2 37 37 S 14 22 30.27 1025 10 16.09344 0 0
2:35 pm 14:35 Sunny 63 17 36 2 37 37 SSW 12 19 30.27 1025 10 16.09344 0 0
2:55 pm 14:55 Sunny 63 17 36 2 37 37 S 15 24 30.27 1025 10 16.09344 0 0
3:15 pm 15:15 Sunny 63 17 36 2 37 37 SSE 14 22 30.24 1024 10 16.09344 0 0
3:35 pm 15:35 Sunny 64 18 36 2 34 34 S 17 28 30.24 1024 10 16.09344 0 0
3:55 pm 15:55 Sunny 64 18 36 2 34 34 S 13 20 30.24 1024 10 16.09344 0 0
4:15 pm 16:15 Sunny 64 18 36 2 34 34 S 9 15 30.21 1023 10 16.09344 0 0
4:35 pm 16:35 Sunny 64 18 36 2 34 34 S 13 20 30.21 1023 10 16.09344 0 0
4:55 pm 16:55 Sunny 64 18 36 2 34 34 S 15 24 30.21 1023 10 16.09344 0 0
5:15 pm 17:15 Sunny 64 18 36 2 34 34 SSW 10 17 30.21 1023 10 16.09344 0 0
5:35 pm 17:35 Sunny 64 18 36 2 34 34 S 10 17 30.21 1023 10 16.09344 0 0
5:55 pm 17:55 Sunny 64 18 36 2 34 34 S 9 15 30.18 1022 10 16.09344 0 0
6:15 pm 18:15 Sunny 63 17 36 2 37 37 SSW 14 22 30.18 1022 10 16.09344 0 0
6:35 pm 18:35 Sunny 63 17 36 2 37 37 S 14 22 30.18 1022 10 16.09344 0 0
6:55 pm 18:55 Sunny 63 17 36 2 37 37 S 8 13 30.21 1023 10 16.09344 0 0
7:15 pm 19:15 Sunny 63 17 36 2 37 37 S 9 15 30.21 1023 10 16.09344 0 0
7:35 pm 19:35 Clear 61 16 36 2 39 39 S 9 15 30.21 1023 10 16.09344 0 0
7:55 pm 19:55 Clear 61 16 36 2 39 39 S 8 13 30.21 1023 10 16.09344 0 0
8:15 pm 20:15 Partly Cloudy 59 15 36 2 42 42 S 5 7 30.21 1023 10 16.09344 0 0
8:35 pm 20:35 Mostly Cloudy 61 16 36 2 39 39 S 8 13 30.21 1023 10 16.09344 0 0
8:55 pm 20:55 Partly Cloudy 59 15 34 1 39 39 S 8 13 30.21 1023 10 16.09344 0 0
9:15 pm 21:15 Cloudy 59 15 36 2 42 42 S 6 9 30.21 1023 10 16.09344 0 0
9:35 pm 21:35 Cloudy 59 15 34 1 39 39 S 6 9 30.21 1023 10 16.09344 0 0
9:55 pm 21:55 Cloudy 59 15 34 1 39 39 S 5 7 30.21 1023 10 16.09344 0 0
10:15 pm 22:15 Partly Cloudy 57 14 34 1 41 41 S 6 9 30.21 1023 10 16.09344 0 0
10:35 pm 22:35 Partly Cloudy 55 13 34 1 44 44 S 6 9 30.21 1023 10 16.09344 0 0
10:55 pm 22:55 Partly Cloudy 55 13 36 2 47 47 S 6 9 30.21 1023 10 16.09344 0 0
11:15 pm 23:15 Partly Cloudy 55 13 36 2 47 47 S 6 9 30.21 1023 10 16.09344 0 0
11:35 pm 23:35 Mostly Cloudy 55 13 36 2 47 47 S 5 7 30.21 1023 10 16.09344 0 0
11:55 pm 23:55 Partly Cloudy 55 13 36 2 47 47 S 6 9 30.18 1022 10 16.09344 0 0

Powered by AerisWeather